Home > Weather > Garbsen > Past weeks

Flag for Germany Past Weather in Garbsen, Lower Saxony, Germany — Yesterday and Last 2 Weeks

Now
68 °F

Rain. Broken clouds.


Feels Like: 68 °F
Forecast: 62 / 74 °F
Wind: 5 mph from North

Location: Hannover

Current Time: Jul 28, 2016 at 2:32:13 PM

Latest Report: Jul 28, 2016 at 1:50 PM


Visibility: 4 mi

Pressure: 29.98 "Hg

Humidity: 78%

Dew Point: 61 °F

Location of GarbsenLocation

Past Weather in Garbsen — Graph

°F

Garbsen Temperature Yesterday

Maximum temperature yesterday: 75 °F (at 2:20 PM)
Minimum temperature yesterday: 59 °F (at 5:50 AM)
Average temperature yesterday: 67 °F

High & Low Weather Summary for the Past Weeks

 TemperatureHumidityPressure
High88 °F (Jul 20, 3:20 PM)100% (Jul 13, 9:50 PM)30.24 "Hg (Jul 13, 9:50 PM)
Low52 °F (Jul 16, 2:20 AM)31% (Jul 20, 5:50 PM)29.86 "Hg (Jul 13, 1:20 PM)
Average68 °F75%30.07 "Hg
* Reported Jul 13 1:20 PM — Jul 28 1:20 PM, Garbsen, Weather by CustomWeather, © 2016

Note: Actual official high and low records may vary slightly from our data, if they occured in-between our weather recording intervals... More about our weather records

Advertising

Garbsen Weather History for the Previous 24 Hours

Scroll right to see more
 ConditionsComfort  
Time TempWeatherWind HumidityBarometerVisibility
1:20 PM
Thu, Jul 28
68 °FBroken clouds.5 mph78%29.98 "HgN/A
12:50 PM68 °FMore clouds than sun.6 mph78%30.01 "HgN/A
12:20 PM68 °FLight rain. Broken clouds.6 mph78%30.01 "HgN/A
11:50 AM68 °FBroken clouds.6 mph73%30.01 "HgN/A
11:20 AM68 °FPartly sunny.2 mph73%30.01 "HgN/A
10:50 AM68 °FPartly sunny.7 mph73%30.01 "HgN/A
10:20 AM68 °FBroken clouds.3 mph78%30.01 "HgN/A
9:50 AM68 °FBroken clouds.2 mph73%30.01 "HgN/A
9:20 AM68 °FPartly sunny.5 mph78%30.01 "HgN/A
8:50 AM66 °FBroken clouds.6 mph83%30.01 "HgN/A
8:20 AM64 °FBroken clouds.8 mph88%30.01 "HgN/A
7:50 AM64 °FPartly sunny.8 mph88%29.98 "HgN/A
7:20 AM64 °FPartly sunny.8 mph88%29.98 "HgN/A
6:50 AM64 °FPartly sunny.5 mph88%29.98 "HgN/A
6:20 AM64 °FPartly cloudy.6 mph88%29.98 "HgN/A
5:50 AM64 °FPassing clouds.9 mph88%29.98 "HgN/A
5:20 AM64 °FPassing clouds.5 mph88%29.98 "HgN/A
4:50 AM64 °FPassing clouds.6 mph88%29.98 "HgN/A
4:20 AM64 °FPartly cloudy.6 mph88%29.98 "HgN/A
3:50 AM64 °FLight rain. Partly cloudy.6 mph88%29.98 "HgN/A
3:20 AM64 °FLight rain. Passing clouds.7 mph88%29.98 "HgN/A
2:50 AM64 °FPassing clouds.12 mph88%29.98 "HgN/A
2:20 AM66 °FPassing clouds.6 mph78%29.98 "HgN/A
1:50 AM66 °FPassing clouds.8 mph78%29.98 "HgN/A
1:20 AM66 °FPassing clouds.5 mph78%29.98 "HgN/A
12:50 AM64 °FPassing clouds.5 mph78%29.98 "HgN/A
12:20 AM64 °FPassing clouds.3 mph78%29.98 "HgN/A
11:50 PM
Wed, Jul 27
64 °FPassing clouds.3 mph78%29.98 "HgN/A
11:20 PM64 °FClear.5 mph78%29.98 "Hg10 mi
10:50 PM66 °FPassing clouds.5 mph73%29.98 "HgN/A
10:20 PM68 °FClear.7 mph64%29.98 "Hg10 mi
9:50 PM68 °FPassing clouds.6 mph64%29.98 "HgN/A
9:20 PM68 °FSunny.6 mph64%29.98 "Hg10 mi
8:50 PM70 °FPassing clouds.7 mph57%29.98 "HgN/A
8:20 PM72 °FScattered clouds.8 mph57%29.98 "HgN/A
7:50 PM72 °FScattered clouds.8 mph57%29.95 "HgN/A
7:20 PM73 °FPassing clouds.10 mph53%29.95 "HgN/A
6:50 PM73 °FPassing clouds.10 mph57%29.95 "HgN/A
6:20 PM73 °FPassing clouds.10 mph57%29.95 "HgN/A
5:50 PM75 °FPassing clouds.13 mph57%29.95 "HgN/A
5:20 PM75 °FScattered clouds.12 mph57%29.95 "HgN/A
4:50 PM75 °FPartly sunny.14 mph57%29.95 "HgN/A
4:20 PM73 °FPartly sunny.12 mph61%29.95 "HgN/A
3:50 PM73 °FBroken clouds.10 mph57%29.95 "HgN/A
3:20 PM75 °FScattered clouds.8 mph50%29.95 "HgN/A
2:50 PM75 °FScattered clouds.7 mph54%29.95 "HgN/A
2:20 PM75 °FScattered clouds.8 mph54%29.95 "HgN/A
Weather by CustomWeather, © 2016

See weather overviewHow to use our weather pages